TimePDT,TemperatureF,Dew PointF,Humidity,Sea Level PressureIn,VisibilityMPH,Wind Direction,Wind SpeedMPH,Gust SpeedMPH,PrecipitationIn,Events,Conditions,WindDirDegrees,DateUTC
12:15 AM,102.2,100.4,95,29.79,10.0,South,3.5,-,N/A,,Clear,180,2011-11-04 07:15:00
12:35 AM,111.2,111.2,100,29.79,10.0,Calm,Calm,-,N/A,,Clear,0,2011-11-04 07:35:00
12:55 AM,55.4,53.6,94,29.79,10.0,South,4.6,-,N/A,,Clear,170,2011-11-04 07:55:00
1:15 AM,51.8,51.8,100,29.79,10.0,SE,4.6,-,N/A,,Clear,140,2011-11-04 08:15:00
1:35 AM,55.4,53.6,94,29.79,10.0,SSE,5.8,-,N/A,,Clear,150,2011-11-04 08:35:00
1:55 AM,55.4,55.4,100,29.80,10.0,SSE,5.8,-,N/A,,Clear,160,2011-11-04 08:55:00
2:15 AM,53.6,53.6,100,29.80,10.0,SE,4.6,-,N/A,,Clear,140,2011-11-04 09:15:00
2:55 AM,86.0,84.2,94,29.80,10.0,SE,6.9,-,N/A,,Clear,140,2011-11-04 09:55:00
3:15 AM,80.6,78.8,94,29.80,10.0,SSE,6.9,-,N/A,,Clear,150,2011-11-04 10:15:00
3:35 AM,78.8,77.0,94,29.81,10.0,SSE,8.1,-,N/A,,Mostly Cloudy,150,2011-11-04 10:35:00
3:55 AM,84.2,82.4,94,29.81,10.0,SE,8.1,-,N/A,,Overcast,140,2011-11-04 10:55:00
4:15 AM,82.4,80.6,94,29.81,10.0,SE,6.9,-,N/A,,Overcast,140,2011-11-04 11:15:00
4:35 AM,80.6,78.8,94,29.80,10.0,SE,8.1,-,N/A,,Overcast,130,2011-11-04 11:35:00
4:55 AM,82.4,80.6,94,29.80,10.0,SE,5.8,-,N/A,,Overcast,130,2011-11-04 11:55:00
5:15 AM,82.4,80.6,94,29.80,10.0,SE,5.8,-,N/A,,Overcast,130,2011-11-04 12:15:00
5:35 AM,82.4,80.6,94,29.81,10.0,ESE,4.6,-,N/A,,Mostly Cloudy,110,2011-11-04 12:35:00
5:55 AM,89.6,87.8,94,29.80,10.0,ESE,5.8,-,N/A,,Mostly Cloudy,110,2011-11-04 12:55:00
6:15 AM,69.8,66.2,88,29.81,10.0,Calm,Calm,-,N/A,,Mostly Cloudy,0,2011-11-04 13:15:00
6:35 AM,68.0,66.2,94,29.81,10.0,Calm,Calm,-,N/A,,Mostly Cloudy,0,2011-11-04 13:35:00
6:55 AM,69.8,64.4,83,29.81,10.0,Calm,Calm,-,N/A,,Mostly Cloudy,0,2011-11-04 13:55:00
7:15 AM,64.4,60.8,88,29.81,10.0,SE,4.6,-,N/A,,Scattered Clouds,140,2011-11-04 14:15:00
7:35 AM,62.6,60.8,94,29.81,10.0,East,4.6,-,N/A,,Partly Cloudy,100,2011-11-04 14:35:00
7:55 AM,57.2,55.4,94,29.82,10.0,East,4.6,-,N/A,,Clear,80,2011-11-04 14:55:00
8:35 AM,62.6,60.8,94,29.84,10.0,ESE,5.8,-,N/A,,Partly Cloudy,120,2011-11-04 15:35:00
8:55 AM,53.6,50.0,88,29.84,10.0,ESE,5.8,-,N/A,,Clear,120,2011-11-04 15:55:00
9:15 AM,55.4,51.8,88,29.85,10.0,ESE,6.9,-,N/A,,Clear,120,2011-11-04 16:15:00
9:35 AM,59.0,53.6,82,29.86,10.0,ESE,4.6,-,N/A,,Clear,110,2011-11-04 16:35:00
9:55 AM,62.6,55.4,77,29.87,10.0,ESE,3.5,-,N/A,,Mostly Cloudy,120,2011-11-04 16:55:00
10:15 AM,64.4,57.2,77,29.87,10.0,ESE,5.8,-,N/A,,Overcast,120,2011-11-04 17:15:00
10:35 AM,66.2,57.2,73,29.87,10.0,ESE,4.6,-,N/A,,Overcast,120,2011-11-04 17:35:00
11:15 AM,64.4,53.6,68,29.88,10.0,Calm,Calm,-,N/A,,Mostly Cloudy,0,2011-11-04 18:15:00
11:35 AM,66.2,55.4,68,29.88,10.0,WNW,5.8,-,N/A,,Overcast,300,2011-11-04 18:35:00
11:55 AM,66.2,57.2,73,29.88,10.0,NW,3.5,-,N/A,,Mostly Cloudy,320,2011-11-04 18:55:00
12:15 PM,66.2,55.4,68,29.88,10.0,Calm,Calm,-,N/A,,Partly Cloudy,0,2011-11-04 19:15:00
12:35 PM,66.2,50.0,56,29.87,10.0,Calm,Calm,-,N/A,,Clear,0,2011-11-04 19:35:00
12:55 PM,66.2,53.6,64,29.87,10.0,NW,4.6,-,N/A,,Scattered Clouds,310,2011-11-04 19:55:00
1:15 PM,68.0,50.0,52,29.86,10.0,Calm,Calm,-,N/A,,Partly Cloudy,0,2011-11-04 20:15:00
1:55 PM,69.8,51.8,53,29.85,10.0,West,5.8,-,N/A,,Scattered Clouds,280,2011-11-04 20:55:00
2:15 PM,69.8,55.4,60,29.86,10.0,NW,5.8,-,N/A,,Mostly Cloudy,320,2011-11-04 21:15:00
2:35 PM,68.0,53.6,60,29.85,10.0,WNW,4.6,-,N/A,,Scattered Clouds,300,2011-11-04 21:35:00
2:55 PM,69.8,53.6,56,29.85,10.0,West,6.9,-,N/A,,Partly Cloudy,280,2011-11-04 21:55:00
3:15 PM,69.8,53.6,56,29.84,10.0,West,6.9,-,N/A,,Scattered Clouds,270,2011-11-04 22:15:00
3:35 PM,71.6,53.6,53,29.84,10.0,West,10.4,-,N/A,,Partly Cloudy,280,2011-11-04 22:35:00
3:55 PM,69.8,53.6,56,29.85,10.0,WNW,6.9,-,N/A,,Partly Cloudy,290,2011-11-04 22:55:00
4:15 PM,77.0,60.8,57,29.85,10.0,WNW,8.1,-,N/A,,Clear,290,2011-11-04 23:15:00
4:35 PM,73.4,57.2,57,29.85,10.0,NW,6.9,-,N/A,,Clear,310,2011-11-04 23:35:00
4:55 PM,71.6,53.6,53,29.85,10.0,WNW,9.2,-,N/A,,Clear,300,2011-11-04 23:55:00
5:15 PM,73.4,57.2,57,29.85,10.0,WNW,6.9,-,N/A,,Clear,290,2011-11-05 00:15:00
5:35 PM,73.4,60.8,65,29.85,10.0,NW,4.6,-,N/A,,Clear,310,2011-11-05 00:35:00
5:55 PM,69.8,55.4,60,29.86,10.0,WNW,3.5,-,N/A,,Clear,300,2011-11-05 00:55:00
6:15 PM,69.8,57.2,64,29.86,10.0,NW,5.8,-,N/A,,Clear,310,2011-11-05 01:15:00
6:35 PM,71.6,59.0,64,29.87,10.0,WNW,3.5,-,N/A,,Clear,300,2011-11-05 01:35:00
6:55 PM,69.8,59.0,68,29.87,10.0,Calm,Calm,-,N/A,,Clear,0,2011-11-05 01:55:00
7:15 PM,68.0,60.8,78,29.87,10.0,Calm,Calm,-,N/A,,Clear,0,2011-11-05 02:15:00
7:35 PM,62.6,57.2,82,29.88,10.0,Calm,Calm,-,N/A,,Clear,0,2011-11-05 02:35:00
7:55 PM,66.2,62.6,88,29.88,10.0,Calm,Calm,-,N/A,,Clear,0,2011-11-05 02:55:00
8:15 PM,62.6,57.2,82,29.88,10.0,Calm,Calm,-,N/A,,Clear,0,2011-11-05 03:15:00
8:35 PM,51.8,48.2,88,29.88,10.0,Calm,Calm,-,N/A,,Clear,0,2011-11-05 03:35:00
8:55 PM,37.4,35.6,93,29.88,10.0,Calm,Calm,-,N/A,,Clear,0,2011-11-05 03:55:00
9:15 PM,39.2,33.8,81,29.88,10.0,Calm,Calm,-,N/A,,Clear,0,2011-11-05 04:15:00
9:35 PM,37.4,33.8,87,29.88,10.0,Calm,Calm,-,N/A,,Clear,0,2011-11-05 04:35:00
9:55 PM,35.6,33.8,93,29.88,10.0,Calm,Calm,-,N/A,,Clear,0,2011-11-05 04:55:00
10:15 PM,37.4,33.8,87,29.88,10.0,Calm,Calm,-,N/A,,Clear,0,2011-11-05 05:15:00
10:35 PM,37.4,33.8,87,29.89,10.0,Calm,Calm,-,N/A,,Clear,0,2011-11-05 05:35:00
10:55 PM,35.6,33.8,93,29.88,10.0,Calm,Calm,-,N/A,,Clear,0,2011-11-05 05:55:00
11:15 PM,37.4,33.8,87,29.89,10.0,Calm,Calm,-,N/A,,Clear,0,2011-11-05 06:15:00
11:35 PM,39.2,35.6,87,29.88,10.0,East,6.9,-,N/A,,Clear,100,2011-11-05 06:35:00
11:55 PM,37.4,33.8,87,29.87,10.0,East,6.9,-,N/A,,Clear,100,2011-11-05 06:55:00